Location: Gulgong NSW 2852, Australia
(32.2976°S, 149.5548°E)
Time: 01:51:50
(UTC+11:00)

Tiangong - Visible Passes

Search period start: 05 December 2021 00:00
Search period end: 15 December 2021 00:00
Orbit: 380 x 384 km, 41.5° (Epoch: 04 December)

Date Brightness Start Highest point End Pass type
(mag) Time Alt. Az. Time Alt. Az. Time Alt. Az.
09 Dec 3.9 05:08:57 10° NNE 05:09:37 10° NE 05:10:15 10° NE visible
11 Dec 3.0 04:43:10 13° N 04:45:04 21° NE 04:47:32 10° E visible
12 Dec 1.1 05:17:52 10° WNW 05:21:03 88° NNE 05:24:14 10° ESE visible
13 Dec 1.8 04:19:47 35° N 04:20:28 41° NNE 04:23:30 10° ESE visible
14 Dec 4.0 03:21:53 13° E 03:21:53 13° E 03:22:22 10° E visible
14 Dec 1.7 04:54:01 14° W 04:56:33 49° SSW 04:59:40 10° SE visible
